ZSPD

Shanghai Pudong International

Airport
ICAO code
ZSPD
Summary
ICAO Region
APAC
ICAO Territory
Location

Pudong, Shanghai,

Coordinates
31° 8' 56" N , 121° 48' 3" E
KCC
Airport LOS
Parallel Runway Operation
Airport WX
Tropical Revolving Storm
Metar
Observation
ZSPD 270530Z 33009MPS CAVOK 05/M07 Q1031 NOSIG
Station
Shanghai / Pudong
Date/Time
2023-01-27 05:30:00
Wind direction
330°
Lowest cloud amount
clouds and visibility OK
Temperature
5°C
Dew point
-7°C
Humidity
41%
QNH
1031 hPa
Weather condition
n/a

Description

International airport serving the city of Shanghai.

Climatology

Humid “subtropical” climate (Köppen climate classification Cfa) - characterized by hot, humid summers and cool winters. Significant amounts of precipitation occur in all seasons in most areas. Winter rainfall (and sometimes snowfall) is associated with large storms that the westerlies steer from west to east. Most summer rainfall occurs during thunderstorms.

Airport map

Aerial View

SKYbrary Partners:

Safety knowledge contributed by: